2020-085P

Last updated on Thu Dec 03 2020 00:02:04 GMT+0000 (Coordinated Universal Time)

1 46942U 20085P 20337.62593811 .00006395 00000-0 29069-3 0 9992 2 46942 97.3702 112.0025 0014898 254.2870 105.6735 15.20993249 1905
UTC large
Height (km)
Speed (km/s)
/
Latitude / Longitude
Inclination (degrees)
Orbital Period (minutes)
Azimuth
Elevation
Range (km)
Doppler Factor

Next 0 passes for location: London (51.5072 / 0.1276)

Sorry there are no passes over London.